Tracking 33159 objects as of 7-Feb-2026
HD Live streaming from Space Station
objects crossing your sky now

STARLINK-4086

Track STARLINK-4086 now!
10-day predictions
STARLINK-4086 is classified as:


NORAD ID: 52833
Int'l Code: 2022-062D
Perigee: 546.0 km
Apogee: 547.8 km
Inclination: 53.2 °
Period: 95.4 minutes
Semi major axis: 6917 km
RCS: Unknown
Launch date: June 17, 2022
Source: United States (US)
Launch site: AIR FORCE EASTERN TEST RANGE (AFETR)
Your satellite tracking list
Your tracking list is empty




NASA's NSSDC Master Catalog

Two Line Element Set (TLE):
1 52833U 22062D   26037.63567981 -.00000024  00000-0  16577-4 0  9993
2 52833  53.2164 173.5295 0001261  87.0770 273.0366 15.08836733201098
Source of the keplerian elements: AFSPC